Location: Maccacari
(45.1333°N, 11.1333°E)
Time: 18:56:46
(UTC+00:00)

USA 234 - Pass Details

Date: 21 January 2021
Orbit: 1100 x 1107 km, 123.0° (Epoch: 01 March)

Event Time Altitude Azimuth Distance (km) Brightness Sun altitude
Exits shadow 17:55:45 26° 56° (NE) 2,018 4.1 -18.8°
Maximum altitude 17:58:25 36° 14° (NNE) 1,677 4.0 -19.3°
Drops below altitude 10° 18:04:15 10° 311° (NW) 2,968 6.1 -20.3°
Sets 18:06:56 0° 303° (WNW) 3,928 6.9 -20.8°
